DW2802 Ogijares ES current weather conditions

sailwx.info

Wind from 237

Air temperature 29.4° C
Dewpoint 6.7° C

Last reported at 2017-May-22 16:50 UTC.
Time now 2017-May-22 17:28 UTC

Location: N 37°07' W 003°36'.
View on Google Maps.

See reports from other nearby stations

  
Tides and Currents Weather Stations Pressure Air Temp Water Temp Dewpoint Dewpoint Depression Visibility Wind Speed Wind Dir Waves Ship Positions
date/time (UTC)wind fromknots sea level pressurealtimeterstation pressurevisibilityair tempwater tempwave heightnotes
2017-May-22 17:05 217 29.4
2017-May-22 16:50 237 29.4
2017-May-22 16:35 281 30.0
2017-May-22 16:20 265 30.0
2017-May-22 16:05 252 30.0
2017-May-22 15:50 267 30.6
2017-May-22 15:35 268 30.6
2017-May-22 15:20 289 30.6
2017-May-22 15:05 259 30.6
2017-May-22 14:50 289 30.0
2017-May-22 14:35 300 30.6
2017-May-22 14:20 295 30.0
2017-May-22 14:05 286 30.0
2017-May-22 13:50 183 30.0
2017-May-22 13:35 290 29.4
2017-May-22 13:20 249 28.9
2017-May-22 13:05 302 28.9
2017-May-22 12:50 300 29.4
2017-May-22 12:35 342 2 gusting 8 29.4
2017-May-22 12:20 300 4 gusting 11 28.9
2017-May-22 12:05 044 0 gusting 9 28.3
2017-May-22 11:50 011 5 gusting 10 28.3
2017-May-22 11:35 011 2 gusting 5 28.3
2017-May-22 11:20 333 2 gusting 7 27.2
2017-May-22 11:05 304 1 gusting 6 26.7
2017-May-22 10:50 303 4 gusting 7 26.7
2017-May-22 10:35 313 2 gusting 7 25.6
2017-May-22 10:20 286 1 gusting 6 25.0
2017-May-22 10:05 286 3 gusting 7 24.4
2017-May-22 09:50 251 24.4
2017-May-22 09:35 247 24.4
2017-May-22 09:19 247 1 gusting 4 23.9
2017-May-22 09:04 245 23.3
2017-May-22 08:49 245 21.7
2017-May-22 08:34 242 2 gusting 6 21.1
2017-May-22 08:19 200 20.6
2017-May-22 08:04 199 20.0
2017-May-22 07:49 199 1 gusting 4 19.4
2017-May-22 07:34 189 0 gusting 2 18.9
2017-May-22 07:19 188 0 gusting 3 18.9
2017-May-22 07:04 188 17.8
2017-May-22 06:49 188 17.8
2017-May-22 06:34 186 17.2
2017-May-22 06:19 186 16.7
2017-May-22 06:04 186 16.1
2017-May-22 05:49 186 16.1
2017-May-22 05:34 186 15.6
2017-May-22 05:19 186 15.6
2017-May-22 05:03 186 16.1
2017-May-22 04:48 186 16.1
2017-May-22 04:33 186 16.7
2017-May-22 04:18 186 17.2
2017-May-22 04:03 186 17.2
2017-May-22 03:48 186 17.2
2017-May-22 03:33 186 17.2
2017-May-22 03:18 186 17.8
2017-May-22 03:03 186 17.8
2017-May-22 02:48 186 17.8
2017-May-22 02:33 186 17.8
2017-May-22 02:18 186 17.8
2017-May-22 02:03 186 18.3
2017-May-22 01:48 186 18.3
2017-May-22 01:33 186 18.9
2017-May-22 01:18 186 18.9
2017-May-22 01:03 186 18.9
2017-May-22 00:48 186 18.9
2017-May-22 00:33 137 19.4
2017-May-22 00:18 136 19.4
2017-May-22 00:03 137 19.4
2017-May-21 23:48 142 19.4
2017-May-21 23:33 123 20.0
2017-May-21 23:18 123 20.6
2017-May-21 23:03 124 20.6
2017-May-21 22:48 152 20.6
2017-May-21 22:33 158 20.6
2017-May-21 22:18 159 20.6
2017-May-21 22:03 154 21.1
2017-May-21 21:48 148 21.1
2017-May-21 21:33 140 21.7
2017-May-21 21:18 155 21.7
2017-May-21 21:03 149 22.2
2017-May-21 20:48 149 22.8
2017-May-21 20:33 148 22.8
2017-May-21 20:18 148 22.8
2017-May-21 20:03 153 22.8
2017-May-21 19:48 164 22.8
2017-May-21 19:33 159 23.3
2017-May-21 19:18 165 23.3
2017-May-21 19:03 167 23.9
2017-May-21 18:48 148 24.4
2017-May-21 18:33 155 25.0
2017-May-21 18:18 227 25.0
2017-May-21 18:03 227 25.6
2017-May-21 17:48 261 26.1
2017-May-21 17:33 342 26.7
2017-May-21 17:18 332 26.7
2017-May-21 17:03 325 26.7
2017-May-21 16:48 287 26.7
2017-May-21 16:33 286 26.7
2017-May-21 16:18 221 26.7
2017-May-21 16:03 221 26.7
2017-May-21 15:48 221 26.1
2017-May-21 15:33 218 26.1
2017-May-21 15:18 281 26.7
2017-May-21 15:03 266 26.7
2017-May-21 14:48 268 26.7
2017-May-21 14:32 341 26.7
2017-May-21 14:18 344 26.7
2017-May-21 14:03 344 26.7
2017-May-21 13:47 338 26.1
2017-May-21 13:33 332 26.1
2017-May-21 13:17 309 26.1
2017-May-21 13:02 252 3 gusting 8 26.1
2017-May-21 12:47 254 4 gusting 7 26.1
2017-May-21 12:32 055 26.7
2017-May-21 12:17 055 26.7
2017-May-21 12:02 062 1 gusting 9 25.6
2017-May-21 11:47 034 3 gusting 7 25.6
2017-May-21 11:32 342 6 gusting 9 25.6
2017-May-21 11:17 315 24.4
2017-May-21 11:02 280 1 gusting 9 24.4
2017-May-21 10:47 349 4 gusting 9 24.4
2017-May-21 10:32 005 3 gusting 6 23.9
2017-May-21 10:17 017 3 gusting 6 23.3
2017-May-21 10:02 313 2 gusting 6 22.2
2017-May-21 09:47 342 0 gusting 8 22.8
2017-May-21 09:32 013 4 gusting 7 22.2
2017-May-21 09:17 333 21.7
2017-May-21 09:02 333 21.1
2017-May-21 08:47 333 21.1
2017-May-21 08:32 333 20.6
2017-May-21 08:17 333 20.0
2017-May-21 08:01 331 19.4
2017-May-21 07:47 331 18.3
2017-May-21 07:31 331 18.3
2017-May-21 07:16 331 17.8
2017-May-21 07:01 331 4 gusting 7 17.8
2017-May-21 06:46 344 3 gusting 8 17.8
2017-May-21 06:31 190 17.2
2017-May-21 06:16 196 16.7
2017-May-21 06:01 217 16.7
2017-May-21 05:46 234 3 gusting 6 16.7
2017-May-21 05:31 148 16.1
2017-May-21 05:16 147 15.6
2017-May-21 05:01 115 1 gusting 6 15.6
2017-May-21 04:46 269 4 gusting 6 16.1
2017-May-21 04:31 301 3 gusting 7 16.1
2017-May-21 04:16 034 16.1
2017-May-21 04:01 034 16.1
2017-May-21 03:46 034 16.1
2017-May-21 03:31 034 16.7
2017-May-21 03:16 034 16.7
2017-May-21 03:01 033 17.2
2017-May-21 02:46 049 2 gusting 6 17.2
2017-May-21 02:31 049 7 gusting 10 16.7
2017-May-21 02:16 165 16.1
2017-May-21 02:01 165 16.7
2017-May-21 01:46 165 16.7
2017-May-21 01:31 165 16.7
2017-May-21 01:16 165 1 gusting 6 16.7
2017-May-21 01:01 159 0 gusting 6 17.2
2017-May-21 00:46 136 17.8
2017-May-21 00:30 065 18.3
2017-May-21 00:15 061 18.3
2017-May-21 00:00 055 4 gusting 9 18.3
2017-May-20 23:45 117 18.3
2017-May-20 23:30 117 18.3
2017-May-20 23:15 117 18.3
2017-May-20 23:00 117 18.9
2017-May-20 22:45 117 18.9
2017-May-20 22:30 119 0 gusting 6 19.4
2017-May-20 22:15 148 2 gusting 6 18.9
2017-May-20 22:00 136 18.9
2017-May-20 21:45 130 1 gusting 3 19.4
2017-May-20 21:30 130 20.0
2017-May-20 21:15 130 20.6
2017-May-20 21:00 117 21.1
2017-May-20 20:45 114 21.1
2017-May-20 20:30 143 21.1
2017-May-20 20:15 151 21.1
2017-May-20 20:00 151 21.7
2017-May-20 19:45 182 21.7
2017-May-20 19:30 163 21.7
2017-May-20 19:15 151 22.2
2017-May-20 19:00 146 23.3
2017-May-20 18:45 183 25.0
2017-May-20 18:30 180 25.0
2017-May-20 18:15 153 25.0
2017-May-20 18:00 156 25.6
2017-May-20 17:45 174 26.7
2017-May-20 17:30 163 26.7
2017-May-20 17:15 186 27.2
2017-May-20 17:00 227 27.2